Vorticity
nan nan nan nan nan nan nan nan nan nan nan nan nan nan nan nan nan nan nan nan nan nan nan nan nan nan nan nan nan nan nan nan nan
nan 8 11 13 12 11 11 10 10 10 10 10 10 7 8 9 9 6 6 8 8 8 7 9 6 6 8 8 9 11 13 9 nan
nan 10 10 11 11 11 11 12 12 11 10 10 11 11 11 10 10 9 8 8 6 7 9 10 10 11 11 12 12 12 11 11 nan
nan 8 10 9 10 11 12 12 12 12 11 12 11 12 10 11 13 11 11 11 11 10 12 14 13 14 15 14 14 13 11 10 nan
nan 12 11 10 11 11 10 11 11 12 12 12 11 12 14 13 12 12 11 14 14 13 13 12 15 15 14 12 13 12 12 12 nan
nan 10 9 9 9 9 9 10 11 12 11 11 14 11 11 11 12 13 12 10 10 12 12 13 13 12 12 10 10 10 10 11 nan
nan 8 7 7 8 8 9 9 10 10 11 11 10 11 11 11 9 9 10 9 10 10 11 11 9 10 9 10 10 11 13 14 nan
nan 8 8 7 8 8 9 9 9 9 10 11 11 10 8 9 10 10 9 10 10 9 10 10 10 11 10 11 10 12 16 15 nan
nan 7 7 8 9 9 9 9 9 9 9 9 9 10 9 9 9 10 10 10 10 10 10 11 11 9 10 11 8 9 17 14 nan
nan 8 8 8 7 8 9 9 9 9 9 9 9 9 9 9 9 10 11 9 9 9 9 9 9 9 9 10 7 7 9 7 nan
nan 8 9 8 8 10 9 8 9 9 9 9 9 9 10 9 10 10 9 8 8 9 8 8 9 9 8 9 8 6 7 9 nan
nan 10 9 9 10 9 9 9 8 9 9 9 9 9 9 10 9 8 8 8 9 9 9 8 8 8 9 7 4 7 15 19 nan
nan 9 9 10 9 8 9 9 8 8 8 9 9 9 9 10 9 9 9 8 8 9 8 8 8 7 6 8 4 6 11 20 nan
nan 11 11 8 7 8 9 9 8 8 8 8 10 10 9 9 8 8 8 9 8 8 9 9 10 8 7 7 9 6 8 19 nan
nan 8 7 6 7 10 9 8 8 8 9 9 9 8 9 9 8 8 8 9 9 9 8 8 9 10 9 8 6 8 10 10 nan
nan 7 5 8 9 9 9 9 8 9 8 9 8 8 8 8 8 9 8 8 9 8 8 8 9 9 9 9 11 14 8 7 nan
nan 8 8 9 9 8 8 9 9 9 9 8 8 8 7 7 8 8 9 8 7 8 9 9 10 10 10 10 10 8 9 9 nan
nan 9 9 9 8 9 9 8 10 9 9 7 8 7 7 7 8 8 6 6 11 10 8 13 13 9 11 13 10 6 6 5 nan
nan 10 9 9 10 10 9 9 9 9 10 9 7 7 7 8 9 10 9 7 3 5 10 9 8 8 13 11 8 8 7 8 nan
nan nan nan nan nan nan nan nan nan nan nan nan nan nan nan nan nan nan nan nan nan nan nan nan nan nan nan nan nan nan nan nan nan
CAPE
353 261 277 564 857 1202 1516 1559 1690 1579 1689 2467 2405 2341 2417 2512 2564 2422 2307 2284 2460 2244 1971 2077 2499 3025 3062 3035 2845 3137 3261 3268 2390
271 172 633 685 970 1189 1474 1657 1855 1885 1977 2142 2293 2161 2461 2621 2720 2661 2281 2537 2723 2419 2538 2443 2579 2771 3011 2961 2271 2365 2651 2974 1853
275 233 961 888 1034 1231 1466 1603 1801 1963 2098 2326 2247 2079 2147 2408 2455 2690 2703 2767 2884 2898 2854 2964 3075 3217 3212 3053 2757 2557 1946 1261 747
133 198 792 1229 1296 1336 1427 1563 1746 2016 2085 2168 2215 2163 2098 2196 2221 2326 2551 2564 2754 3146 3119 3257 2947 3011 2708 2348 1890 1637 1364 1130 1220
496 768 1204 1365 1486 1492 1612 1720 1844 1996 2061 2108 2214 2552 2722 2590 2667 2710 2768 2800 2230 1909 2071 1865 1641 1380 1102 917 639 520 336 336 255
1281 1353 1514 1688 1883 2159 2186 2291 2317 2335 2310 2439 2610 2875 2901 2904 2716 1943 1365 990 754 560 639 560 559 587 678 662 553 396 479 598 616
1352 1613 1925 2154 2463 2753 2851 2960 3077 3022 2956 3009 2920 2728 2418 1956 1664 1316 751 249 51 2 13 28 105 86 18 8 32 43 261 349 519
1720 2030 2143 2408 2642 2751 2788 2781 2849 2817 2756 2649 2393 1966 1380 615 344 172 49 11 2 6 10 8 14 13 7 9 6 6 27 2 5
1752 1982 2365 2566 2771 2774 2835 2924 2820 2594 2301 1861 1438 703 227 64 18 9 6 4 11 11 9 10 7 9 7 6 2 4 1 0 4
1871 2192 2561 2643 2751 2824 2870 2754 2433 1804 1267 865 310 40 4 7 13 6 7 10 10 7 9 11 9 8 15 14 12 0 2 9 14
2239 2481 2591 2740 2820 2848 2644 2024 1274 768 457 255 52 2 6 26 10 17 24 13 9 7 6 8 10 11 10 4 1 0 0 1 10
2515 2578 2734 2708 2761 2506 1905 1132 589 282 194 148 38 19 15 3 4 8 8 9 5 3 2 3 5 9 11 5 0 0 0 0 2
2526 2642 2684 2605 2378 1785 1040 526 206 163 95 45 11 0 1 4 6 4 2 1 2 2 1 3 6 17 18 2 7 0 0 0 15
2545 2604 2610 2304 1456 1001 685 283 152 104 8 1 0 0 1 2 3 2 2 3 5 8 8 10 11 14 13 6 1 0 1 0 11
2811 2803 2078 1114 996 934 441 251 225 56 0 0 0 1 3 3 1 0 2 5 5 4 2 3 9 6 1 7 0 0 0 0 0
2679 2102 1074 848 915 676 300 336 217 137 0 0 0 1 2 2 2 4 7 0 0 0 0 0 0 0 0 0 0 0 0 0 0
2200 1158 873 687 541 414 390 470 389 194 28 0 0 0 2 5 6 7 0 0 0 0 0 0 0 0 0 0 0 0 0 0 0
1581 940 649 494 421 521 658 691 616 215 44 0 0 1 2 3 0 5 0 0 0 0 0 0 0 0 0 0 0 0 0 0 0
1508 899 650 552 505 682 761 790 603 244 3 0 0 0 0 0 0 0 0 0 0 0 0 0 0 0 0 0 0 0 0 0 0
1076 872 835 600 940 773 839 794 336 71 0 0 0 0 0 0 0 1 0 0 0 0 0 0 0 0 0 0 0 0 0 0 0